View from above orbital plane
|
View from above satellite
|
Ground track
|
The orbit data is extracted from the following two-line orbital elements,
1 45117U 19071G 21017.10489454 .00002456 00000-0 82045-4 0 9992
2 45117 51.6427 49.7440 0011004 105.1606 255.0595 15.35092446 53927
Epoch (UTC): | 17 January 2021 02:31:02 |
Eccentricity: | 0.0011004 |
inclination: | 51.6427° |
perigee height: | 453 km |
apogee height: | 468 km |
right ascension of ascending node: | 49.7440° |
argument of perigee: | 105.1606° |
revolutions per day: | 15.35092446 |
mean anomaly at epoch: | 255.0595° |
orbit number at epoch: | 5392 |
The dashed part of the orbit path shows where the satellite is in the earth's shadow,
|
|